Location: L�Ave Maria
(50.7161°N, 1.5911°E)
Time: 23:41:16
(UTC+00:00)

Cosmos 2237 Rocket - Pass Details

Date: 10 July 2020
Orbit: 835 x 850 km, 71.0° (Epoch: 14 August)

Event Time Altitude Azimuth Distance (km) Brightness Sun altitude
Rises 20:56:50 0° 181° (S) 3,399 4.9 -6.9°
Reaches altitude 10° 20:59:25 10° 173° (S) 2,469 4.1 -7.1°
Maximum altitude 21:04:35 37° 107° (ESE) 1,295 2.8 -7.7°
Drops below altitude 10° 21:09:46 10° 42° (NE) 2,487 4.8 -8.2°
Sets 21:12:23 0° 35° (NE) 3,426 5.6 -8.5°
